Regional Weather Roundup
Issued by NWS Charleston, SC

Current Version | Previous Version | Graphics & Text | Print | Product List | Glossary Off
Versions: 1 2 3 4 5 6 7 8 9 10 11 12 13 14 15 16 17 18 19 20 21 22 23 24 25 26 27 28 29 30 31 32 33 34 35 36 37 38 39 40 41 42 43 44 45 46 47 48 49 50

000
ASUS42 KCHS 201025
RWRCHS

REGIONAL WEATHER ROUNDUP
NATIONAL WEATHER SERVICE CHARLESTON SC
600 AM EDT MON OCT 20 2014

NOTE: "FAIR" INDICATES FEW OR NO CLOUDS BELOW 12,000 FEET WITH NO
SIGNIFICANT WEATHER AND/OR OBSTRUCTIONS TO VISIBILITY.

NOT ALL STATIONS ARE QUALITY CONTROLLED BY THE NATIONAL
WEATHER SERVICE. USE DATA WITH CAUTION...ESPECIALLY
DEWPOINT OBSERVATIONS.

SCZ027-030-031-034>040-042>050-201100-
...SOUTH CAROLINA...

CITY           SKY/WX    TMP DP  RH WIND       PRES   REMARKS
N CHARLESTON   PTCLDY    54  49  83 CALM      30.13R
WATERFRONT PRK   N/A     63 N/A N/A N9          N/A
FORT JOHNSON   NOT AVBL
JOHNS ISLAND   PTSUNNY   57  54  88 CALM      30.12S
PINOPOLIS        N/A     59  52  77 SE3       30.03F
MONCKS CORNER  PTSUNNY   48  48 100 CALM      30.13S
SUMMERVILLE    FAIR      46  46 100 CALM      30.14R
BEAUFORT MCAS  CLEAR     52  50  93 N6        30.11S
BEAUFORT ARPT  FAIR      57  55  94 N5        30.10F
HILTON HEAD IS NOT AVBL
GEORGETOWN     NOT AVBL
WALTERBORO     MOSUNNY   45 N/A N/A CALM      30.14R
ORANGEBURG     CLEAR     46  43  89 CALM      30.13S
BARNWELL       FAIR      43  43 100 CALM      30.14R
AIKEN          FAIR      43  43 100 CALM      30.16S
MANNING        FAIR      45 N/A N/A CALM      30.14S
KINGSTREE      NOT AVBL
COLUMBIA       CLEAR     44  41  89 SW3       30.13R
SUMTER         CLEAR     45  44  96 CALM      30.12S
FLORENCE       CLEAR     46  42  86 CALM      30.14S
MYRTLE BEACH   CLEAR     52  45  76 N7        30.13F
N MYRTLE BEACH CLEAR     46  43  89 NE5       30.14S

$$

GAZ063-065-086>088-099>101-113>116-118-119-134-136>141-150-201100-
...GEORGIA...

CITY           SKY/WX    TMP DP  RH WIND       PRES   REMARKS
SAVANNAH ARPT  CLEAR     54  50  86 N3        30.10S
HUNTER AAF     CLEAR     56  52  85 N2        30.08S
FORT STEWART   CLEAR     49  47  92 CALM      30.08S
STATESBORO     NOT AVBL
SYLVANIA       SUNNY     49  48  98 CALM      30.13R
CLAXTON        FAIR      45  45 100 CALM      30.10F
THOMSON        CLEAR     46  46 100 CALM      30.17R
AUGUSTA-BUSH   PTCLDY    40  40 100 CALM      30.14R FOG
AUGUSTA-DANIEL CLEAR     53  49  86 CALM      30.13R
SWAINSBORO     FAIR      46  46 100 MISG      30.12S
VIDALIA        CLEAR     50  50 100 CALM      30.11R
ALMA           CLEAR     47  46  97 CALM      30.08S FOG
WAYCROSS       PTCLDY    53  52  98 CALM      30.09R
JESUP          FAIR      54  52  94 CALM      30.09S
BRUNSWICK      CLEAR     52  50  93 CALM      30.08S
SAINT SIMONS   CLEAR     54  54 100 CALM      30.07S

$$

SCZ027-028-034-036>038-045-046-048>050-GAZ119-141-201100-
...LAKE AND SUPPLEMENTAL COASTAL OBSERVATIONS...

STATION/POSITION TIME  TEMP    WIND        PRES    WAVE   SWELL
                       AIR SEA DIR/SP/G            HT/PER HT/PER/DIR
                 (UTC) (F)     (DEG/KT/KT) (MB)    (FT/S) (FT/S/D)
UPR LAKE MARION  NOT AVBL
WINYAH BAY       1000   51     320/  4     1020.0S
LAKE MURRAY      1000   55     120/  4/  6 1019.6R
ACE BASIN NERRS  1000   53        CALM     1019.0S
FORT PULASKI     1000   64     360/  5/  6 1019.1S
SAPELO ISLAND    NOT AVBL

$$

ANZ835-935-AMZ111-154-330-350-352-354-374-450-454-472-201100-
...C-MAN AND BUOY OBSERVATIONS...

STATION/POSITION TIME  TEMP    WIND        PRES    WAVE   SWELL
                       AIR SEA DIR/SP/G            HT/PER HT/PER/DIR
                 (UTC) (F)     (DEG/KT/KT) (MB)    (FT/S) (FT/S/D)
FOLLY BEACH CMAN 1000   65      20/  7/  9 1020.2R
BUOY 41004       1000   70 79  120/  4/  8 1019.0S   2/10   2/10
BUOY 41008       1000   71 76   90/  8/ 10 1018.3R   3/ 6   2/ 60/ 6
5E ST. MARYS GA  1000      77                N/A     3/ 6   2/ 90/13
FRYING PAN BUOY  1000   67 75   90/  4/  8 1020.7S   2/10   2/ 90/10
BUOY 41025       1000   62      10/  4/  8 1020.7R   4/12   3/ 60/12
CAPE LOOKOUT NC  1000   59     320/  3/  5 1020.8R
BUOY 41002       0926   70 80   80/  8/ 12 1019.7R   5/ 8   5/ 10/ 8
BUOY 41010       1000   77 80   50/ 14/ 16 1016.6S   4/ 7   3/ 10/ 7
BUOY 41012       NOT AVBL
ST AUGUSTINE FL  1000   75      70/ 11/ 12 1017.8R
CAPERS NEARSHORE 0900   66      60/ 10/ 12   N/A
FRIPP NEARSHORE  NOT AVBL


$$


USA.gov is the U.S. government's official web portal to all federal, state and local government web resources and services.